AE7QG Weather Reports


Display with metric or nautical units.
time (UTC)temp
F
wind
direction
speed
MPH
gust
MPH
rain 1hr
in
rain 24hr
in
rain mn
in
humidity
%
barometer
mb
20260903211600 65 167 1.0 3.0 0.00 0.04 0.04 51 1006.7
20260903210118 65 176 1.0 6.0 0.00 0.06 0.04 50 1006.6
20260903204618 68 181 1.0 4.0 0.00 0.06 0.04 47 1006.7
20260903203057 66 18 0.0 4.0 0.00 0.06 0.04 51 1006.7
20260903201557 65 171 0.0 4.0 0.00 0.06 0.04 52 1006.8
20260903194555 66 172 0.0 6.0 0.00 0.16 0.04 53 1006.6
20260903193054 66 229 2.0 5.0 0.00 0.16 0.04 55 1006.9
20260903191550 64 254 1.0 5.0 0.00 0.16 0.04 56 1007.0
20260903190050 64 231 3.0 6.0 0.00 0.17 0.04 59 1006.9
20260903184549 63 176 1.0 6.0 0.00 0.17 0.04 60 1007.0
20260903183047 62 163 2.0 6.0 0.00 0.17 0.04 62 1007.1
20260903181546 62 119 1.0 6.0 0.00 0.17 0.04 65 1007.1
20260903180049 61 212 2.0 5.0 0.00 0.17 0.04 67 1007.1
20260903174544 64 129 2.0 6.0 0.00 0.17 0.04 63 1006.9
20260903173041 62 111 1.0 4.0 0.00 0.17 0.04 69 1006.9
20260903171537 60 185 2.0 4.0 0.00 0.17 0.04 76 1006.9
20260903170035 59 151 0.0 2.0 0.00 0.17 0.04 80 1007.0
20260903164538 58 151 0.0 3.0 0.00 0.17 0.04 81 1006.9
20260903163031 58 151 0.0 2.0 0.00 0.17 0.04 83 1006.9
20260903161534 58 144 1.0 5.0 0.00 0.17 0.04 84 1006.8
20260903160051 56 344 0.0 2.0 0.00 0.17 0.04 88 1006.5
20260903154525 55 344 0.0 0.0 0.00 0.17 0.04 90 1006.6
20260903153024 55 344 0.0 0.0 0.00 0.17 0.04 91 1006.7
20260903151525 55 344 0.0 1.0 0.00 0.17 0.04 92 1006.5
20260903150027 54 344 0.0 0.0 0.00 0.17 0.04 93 1006.6
20260903144522 53 344 0.0 0.0 0.00 0.17 0.04 93 1006.5
20260903143025 53 344 0.0 0.0 0.00 0.17 0.04 93 1006.5
20260903141517 53 344 0.0 0.0 0.00 0.17 0.04 93 1006.4
20260903140020 52 344 0.0 0.0 0.00 0.17 0.04 93 1006.2
20260903134613 52 344 0.0 0.0 0.00 0.17 0.04 93 1005.8
20260903133013 52 344 0.0 0.0 0.00 0.17 0.04 93 1005.6
20260903131510 52 344 0.0 0.0 0.00 0.17 0.04 93 1005.3
20260903130009 52 344 0.0 0.0 0.02 0.17 0.04 92 1005.1
20260903124509 52 344 0.0 0.0 0.03 0.17 0.04 92 1005.1
20260903123008 52 344 0.0 0.0 0.03 0.17 0.04 92 1005.1
20260903121506 52 344 0.0 0.0 0.03 0.17 0.04 92 1005.0
20260903120005 52 344 0.0 0.0 0.01 0.15 0.02 91 1005.0
20260903114505 52 344 0.0 0.0 0.00 0.14 0.01 91 1005.1
20260903113005 52 344 0.0 0.0 0.00 0.14 0.01 91 1004.8
20260903111502 52 344 0.0 0.0 0.00 0.14 0.01 91 1004.7
20260903110001 51 344 0.0 0.0 0.00 0.14 0.01 90 1004.6
20260903104501 51 344 0.0 0.0 0.00 0.14 0.01 91 1004.6
20260903103105 51 344 0.0 0.0 0.00 0.14 0.01 91 1004.5
20260903103002 51 344 0.0 0.0 0.00 0.14 0.01 91 1004.5
20260903101602 51 344 0.0 0.0 0.00 0.14 0.01 91 1004.5
20260903094605 52 344 0.0 0.0 0.00 0.14 0.01 91 1004.3
20260903093121 52 344 0.0 0.0 0.00 0.14 0.01 90 1004.3
20260903091556 52 344 0.0 0.0 0.00 0.14 0.01 90 1004.4
20260903090059 52 344 0.0 0.0 0.00 0.14 0.01 90 1004.4
20260903084555 53 344 1.0 2.0 0.00 0.14 0.01 90 1004.5
20260903083059 53 344 0.0 0.0 0.00 0.14 0.01 89 1004.5
20260903081554 53 360 0.0 0.0 0.00 0.14 0.01 89 1004.5
20260903080104 53 360 0.0 0.0 0.00 0.14 0.01 89 1004.3
20260903074612 53 360 0.0 5.0 0.01 0.14 0.01 90 1004.1
20260903073105 53 235 0.0 2.0 0.01 0.14 0.01 90 1004.4
20260903071559 53 235 0.0 2.0 0.01 0.14 0.01 90 1004.7
20260903070049 53 235 0.0 2.0 0.01 0.14 0.01 88 1004.1
20260903064549 54 235 0.0 2.0 0.00 0.13 0.00 85 1004.5
20260903063047 54 235 0.0 2.0 0.00 0.13 0.00 85 1004.4
20260903061545 52 157 0.0 0.0 0.00 0.13 0.00 86 1003.9
20260903060040 52 157 0.0 0.0 0.00 0.13 0.13 87 1003.6
20260903054540 52 157 0.0 0.0 0.00 0.13 0.13 87 1003.7
20260903053039 52 157 0.0 0.0 0.00 0.13 0.13 87 1003.7
20260903051538 52 157 0.0 0.0 0.00 0.13 0.13 87 1003.8
20260903050037 52 157 0.0 0.0 0.00 0.13 0.13 87 1003.8
20260903044536 52 157 0.0 0.0 0.00 0.13 0.13 87 1004.0
20260903043037 51 157 0.0 0.0 0.00 0.13 0.13 87 1004.0
20260903041540 52 157 0.0 0.0 0.00 0.13 0.13 85 1004.0
20260903040034 52 157 0.0 0.0 0.00 0.13 0.13 85 1004.0
20260903034545 53 157 0.0 0.0 0.00 0.13 0.13 85 1003.9
20260903033040 53 157 0.0 0.0 0.00 0.13 0.13 84 1004.0
20260903031537 54 157 0.0 0.0 0.00 0.13 0.13 82 1003.9
20260903030033 55 157 0.0 0.0 0.00 0.13 0.13 83 1003.8
20260903024532 56 157 0.0 0.0 0.00 0.13 0.13 81 1003.6
20260903023036 56 156 0.0 0.0 0.00 0.13 0.13 81 1003.5
20260903021531 58 156 0.0 0.0 0.00 0.13 0.13 77 1003.5
20260903020032 59 156 0.0 0.0 0.00 0.13 0.13 76 1003.6
20260903014546 60 156 0.0 0.0 0.00 0.13 0.13 74 1003.6
20260903013034 60 156 0.0 0.0 0.00 0.13 0.13 72 1003.6
20260903011529 62 156 0.0 0.0 0.00 0.13 0.13 69 1003.7
20260903010029 62 156 0.0 0.0 0.00 0.13 0.13 66 1003.6
20260903004540 63 156 0.0 0.0 0.00 0.13 0.13 62 1003.6
20260903003036 63 156 0.0 2.0 0.00 0.13 0.13 63 1003.6
20260903001527 64 156 2.0 3.0 0.00 0.13 0.13 61 1003.7
20260903000027 63 182 0.0 2.0 0.00 0.13 0.13 63 1003.7
20260902234527 64 185 1.0 4.0 0.00 0.13 0.13 62 1003.8
20260902233027 63 256 0.0 3.0 0.00 0.13 0.13 64 1003.9
20260902231526 63 158 0.0 6.0 0.00 0.13 0.13 64 1004.0
20260902230025 64 166 2.0 7.0 0.00 0.13 0.13 64 1004.0
20260902224526 64 159 2.0 6.0 0.00 0.13 0.13 65 1004.0
20260902223126 63 126 2.0 6.0 0.00 0.13 0.13 65 1003.9
20260902221525 63 185 1.0 4.0 0.00 0.13 0.13 71 1003.9
20260902220023 61 109 1.0 3.0 0.00 0.13 0.13 74 1003.9
20260902214528 60 217 0.0 3.0 0.00 0.13 0.13 78 1004.1
20260902213027 59 243 0.0 2.0 0.00 0.13 0.13 83 1004.4